Date String (YYYY-MM-DD hh:mm:ss) UTC,Instrument flags,Ambient pressure (hPa),Sample flow (lpm),Bypass flow (lpm),Sample temperature (°C),Ambient temperature (°C),ASC tube jacket temperature (°C),LED temperature (°C),Box temperature (°C),Sample RH (%),Span deviation,Mass concentration (μg/m³),Mass concentration (μg/m³),Mass concentration (μg/m³)
DateTimeUTC,F1_M11,P_M11,Q1_M11,Q2_M11,T1_M11,T2_M11,T3_M11,T4_M11,T5_M11,U1_M11,ZSPAN_M11,X0_M11,X2_M11,X1_M11
2022-12-06 03:00:00,,0818.4,4.99,0.00,22.0,20.5,00.0,31.1,23.9,18.1,0000.0,0009.80,0003.63,0003.11
2022-12-06 03:01:00,,0818.3,5.00,0.00,22.1,20.6,00.0,31.1,23.9,18.1,0000.0,0010.41,0003.62,0003.08
2022-12-06 03:02:00,,0818.2,5.00,0.00,22.1,20.6,00.0,31.1,23.9,18.1,0000.0,0009.72,0003.65,0003.08
2022-12-06 03:03:00,,0818.2,5.00,0.00,22.1,20.7,00.0,31.1,23.9,18.1,0000.0,0009.85,0003.66,0003.06
2022-12-06 03:04:00,,0818.2,5.01,0.00,22.1,20.7,00.0,31.1,24.0,18.0,0000.0,0009.70,0003.64,0003.04
2022-12-06 03:05:00,,0818.2,5.00,0.00,22.1,20.7,00.0,31.1,24.0,18.0,0000.0,0009.15,0003.60,0003.03
2022-12-06 03:06:00,,0818.2,4.99,0.00,22.1,20.7,00.0,31.1,24.0,18.0,0000.0,0008.91,0003.58,0003.00
2022-12-06 03:07:00,,0818.2,4.99,0.00,22.2,20.8,00.0,31.1,24.0,18.0,0000.0,0008.74,0003.54,0002.98
2022-12-06 03:08:00,,0818.2,5.00,0.00,22.2,20.8,00.0,31.1,24.0,18.0,0000.0,0008.03,0003.52,0002.97
2022-12-06 03:09:00,,0818.2,5.01,0.00,22.2,20.8,00.0,31.1,24.0,18.0,0000.0,0008.18,0003.51,0002.96
2022-12-06 03:10:00,,0818.2,5.00,0.00,22.2,20.8,00.0,31.1,24.0,17.8,0000.0,0008.70,0003.51,0002.95
2022-12-06 03:11:00,,0818.3,5.00,0.00,22.2,20.8,00.0,31.1,24.1,17.9,0000.0,0008.88,0003.51,0002.94
2022-12-06 03:12:00,,0818.4,4.99,0.00,22.2,20.9,00.0,31.1,24.1,17.8,0000.0,0008.44,0003.49,0002.91
2022-12-06 03:13:00,,0818.4,4.99,0.00,22.2,20.9,00.0,31.1,24.1,17.8,0000.0,0008.52,0003.47,0002.88
2022-12-06 03:14:00,,0818.4,4.99,0.00,22.2,20.9,00.0,31.1,24.1,17.9,0000.0,0008.53,0003.46,0002.88
2022-12-06 03:15:00,,0818.4,5.01,0.00,22.2,20.9,00.0,31.2,24.1,17.9,0000.0,0008.51,0003.50,0002.89
2022-12-06 03:16:00,,0818.4,5.01,0.00,22.2,20.9,00.0,31.2,24.1,17.8,0000.0,0008.66,0003.51,0002.91
2022-12-06 03:17:00,,0818.4,5.01,0.00,22.2,21.0,00.0,31.2,24.2,17.6,0000.0,0008.83,0003.55,0002.95
2022-12-06 03:18:00,,0818.4,4.99,0.00,22.3,20.9,00.0,31.2,24.1,17.6,0000.0,0008.87,0003.55,0002.99
2022-12-06 03:19:00,,0818.4,5.00,0.00,22.3,20.9,00.0,31.2,24.1,17.5,0000.0,0008.91,0003.58,0003.03
2022-12-06 03:20:00,,0818.4,4.99,0.00,22.3,20.9,00.0,31.2,24.1,17.5,0000.0,0008.92,0003.60,0003.08
2022-12-06 03:21:00,,0818.4,4.99,0.00,22.3,20.8,00.0,31.2,24.1,17.4,0000.0,0008.52,0003.64,0003.13
2022-12-06 03:22:00,,0818.3,5.00,0.00,22.3,20.7,00.0,31.2,24.1,17.5,0000.0,0008.47,0003.71,0003.16
2022-12-06 03:23:00,,0818.2,5.01,0.00,22.2,20.6,00.0,31.2,24.0,17.4,0000.0,0008.21,0003.77,0003.19
2022-12-06 03:24:00,,0818.2,5.01,0.00,22.2,20.5,00.0,31.2,24.0,17.4,0000.0,0008.08,0003.79,0003.21
2022-12-06 03:25:00,,0818.2,5.00,0.00,22.2,20.4,00.0,31.2,24.0,17.4,0000.0,0008.07,0003.83,0003.22
2022-12-06 03:26:00,,0818.2,5.00,0.00,22.2,20.3,00.0,31.2,23.9,17.3,0000.0,0008.07,0003.81,0003.23
2022-12-06 03:27:00,,0818.2,5.00,0.00,22.1,20.2,00.0,31.2,23.8,17.3,0000.0,0008.01,0003.79,0003.23
2022-12-06 03:28:00,,0818.2,5.00,0.00,22.1,20.2,00.0,31.2,23.8,17.4,0000.0,0007.81,0003.77,0003.22
2022-12-06 03:29:00,,0818.3,5.00,0.00,22.0,20.1,00.0,31.2,23.7,17.0,0000.0,0008.22,0003.77,0003.20
2022-12-06 03:30:00,,0818.2,5.00,0.00,22.0,20.0,00.0,31.1,23.7,17.0,0000.0,0008.71,0003.82,0003.17
2022-12-06 03:31:00,,0818.1,5.00,0.00,22.0,20.0,00.0,31.1,23.6,17.1,0000.0,0008.95,0003.80,0003.15
2022-12-06 03:32:00,,0818.1,5.00,0.00,21.9,19.9,00.0,31.1,23.6,17.0,0000.0,0009.34,0003.77,0003.12
2022-12-06 03:33:00,,0818.0,5.00,0.00,21.9,19.9,00.0,31.1,23.5,16.8,0000.0,0009.60,0003.69,0003.05
2022-12-06 03:34:00,,0818.0,5.00,0.00,21.9,19.8,00.0,31.0,23.5,16.6,0000.0,0009.43,0003.60,0002.94
2022-12-06 03:35:00,,0818.0,5.00,0.00,21.9,19.8,00.0,31.0,23.5,16.7,0000.0,0009.10,0003.55,0002.86
2022-12-06 03:36:00,,0818.0,5.00,0.00,21.8,19.7,00.0,31.0,23.5,16.8,0000.0,0009.01,0003.48,0002.76
2022-12-06 03:37:00,,0818.0,5.00,0.00,21.8,19.7,00.0,31.0,23.4,16.4,0000.0,0008.87,0003.41,0002.64
2022-12-06 03:38:00,,0818.0,5.00,0.00,21.8,19.6,00.0,30.9,23.4,16.4,0000.0,0008.84,0003.39,0002.53
2022-12-06 03:39:00,,0818.0,5.00,0.00,21.7,19.6,00.0,30.9,23.3,16.4,0000.0,0008.80,0003.32,0002.40
2022-12-06 03:40:00,,0818.0,5.00,0.00,21.7,19.6,00.0,30.9,23.3,16.5,0000.0,0008.45,0003.26,0002.29
2022-12-06 03:41:00,,0818.0,5.00,0.00,21.6,19.6,00.0,30.9,23.2,16.5,0000.0,0008.08,0003.14,0002.21
2022-12-06 03:42:00,,0818.0,5.00,0.00,21.6,19.5,00.0,30.8,23.2,16.4,0000.0,0007.99,0003.08,0002.10
2022-12-06 03:43:00,,0818.0,5.00,0.00,21.6,19.5,00.0,30.8,23.2,16.1,0000.0,0007.43,0002.96,0002.00
2022-12-06 03:44:00,,0818.0,5.01,0.00,21.6,19.6,00.0,30.8,23.2,16.3,0000.0,0006.48,0002.85,0001.91
2022-12-06 03:45:00,,0818.0,5.00,0.00,21.6,19.6,00.0,30.7,23.2,16.4,0000.0,0006.48,0002.77,0001.83
2022-12-06 03:46:00,,0818.0,5.00,0.00,21.5,19.6,00.0,30.7,23.2,16.1,0000.0,0007.57,0002.69,0001.75
2022-12-06 03:47:00,,0818.0,5.00,0.00,21.5,19.5,00.0,30.7,23.1,16.1,0000.0,0008.08,0002.59,0001.67
2022-12-06 03:48:00,,0818.0,5.00,0.00,21.5,19.4,00.0,30.7,23.1,16.2,0000.0,0008.06,0002.55,0001.62
2022-12-06 03:49:00,,0818.0,5.01,0.00,21.5,19.5,00.0,30.6,23.1,16.2,0000.0,0007.81,0002.41,0001.57
2022-12-06 03:50:00,,0818.0,5.00,0.00,21.4,19.5,00.0,30.6,23.1,16.0,0000.0,0007.79,0002.37,0001.51
2022-12-06 03:51:00,,0818.0,5.00,0.00,21.4,19.6,00.0,30.6,23.1,15.9,0000.0,0008.03,0002.31,0001.45
2022-12-06 03:52:00,,0818.0,5.00,0.00,21.4,19.6,00.0,30.6,23.1,16.0,0000.0,0007.93,0002.21,0001.38
2022-12-06 03:53:00,,0818.0,4.99,0.00,21.4,19.6,00.0,30.5,23.1,16.0,0000.0,0007.52,0002.11,0001.32
2022-12-06 03:54:00,,0818.1,4.99,0.00,21.4,19.6,00.0,30.5,23.1,16.0,0000.0,0007.55,0002.10,0001.28
2022-12-06 03:55:00,,0818.2,5.00,0.00,21.4,19.6,00.0,30.5,23.1,16.0,0000.0,0007.50,0002.03,0001.23
2022-12-06 03:56:00,,0818.2,5.00,0.00,21.4,19.7,00.0,30.5,23.1,15.9,0000.0,0007.38,0001.97,0001.18
2022-12-06 03:57:00,,0818.2,5.00,0.00,21.4,19.7,00.0,30.5,23.1,15.8,0000.0,0005.83,0001.93,0001.14
2022-12-06 03:58:00,,0818.2,5.00,0.00,21.4,19.7,00.0,30.5,23.1,15.8,0000.0,0005.17,0001.88,0001.09
2022-12-06 03:59:00,,0818.2,5.00,0.00,21.4,19.7,00.0,30.5,23.1,15.7,0000.0,0005.38,0001.86,0001.05
